Recently Rated Books

The most recently rated books by our users.

Book User Rating Date Rated
1. A Potion to Die For MissTristy 3 out of 5 8/16/2018 11:45:38 PM
2. The Allure of Julian LeFray SylSuarez 5 out of 5 8/16/2018 9:52:19 PM
3. Food Wars!: Shokugeki No Soma, Vol. 22 racetank 5 out of 5 8/16/2018 9:19:57 PM
4. The Mother Hunt trekie70 4 out of 5 8/16/2018 8:38:00 PM
5. Flourless to Stop Him SuzF 4 out of 5 8/16/2018 8:29:42 PM
6. Alone in the Dark Nichelle 5 out of 5 8/16/2018 8:17:16 PM
7. Badd Boy westcairn 5 out of 5 8/16/2018 8:00:20 PM
8. Murder in an Irish Village Donna S 3 out of 5 8/16/2018 7:33:48 PM
9. The 17th Suspect Marbles 4 out of 5 8/16/2018 6:21:53 PM
10. Dirty Deeds Katwhite40 4 out of 5 8/16/2018 5:31:16 PM
11. Expiration Date dkbrook 5 out of 5 8/16/2018 4:56:28 PM
12. Murder in the Locked Library dkbrook 5 out of 5 8/16/2018 4:55:53 PM
13. A Wee Homicide in the Hotel dkbrook 5 out of 5 8/16/2018 4:47:35 PM
14. A Wee Dose of Death dkbrook 5 out of 5 8/16/2018 4:47:21 PM
15. A Wee Murder In My Shop dkbrook 4 out of 5 8/16/2018 4:47:04 PM
16. Killer on a Hot Tin Roof MomtoMandJ 4 out of 5 8/16/2018 4:44:08 PM
17. The Long Way Home wwowkath 5 out of 5 8/16/2018 12:11:13 PM
18. Fire in His Spirit pgarey 3 out of 5 8/16/2018 9:40:33 AM
19. 1636: Mission to the Mughals mugenkits 4 out of 5 8/16/2018 9:19:46 AM
20. Hunter Hunted FredHewett 5 out of 5 8/16/2018 7:15:26 AM
21. The Breakers Lexie956 5 out of 5 8/16/2018 7:04:19 AM
22. Just a Bit Wicked - Straight Guys Micsal 3 out of 5 8/16/2018 6:25:49 AM
23. Blackout sharrielee 4 out of 5 8/16/2018 5:45:47 AM
24. Lawful Deception Torr 4 out of 5 8/16/2018 4:43:04 AM
25. The Lost Temple of Ssis'sythyss Torr 5 out of 5 8/16/2018 4:42:50 AM
26. Rescued mmynatt 5 out of 5 8/16/2018 4:21:10 AM
27. 9 Dragons susan60625 5 out of 5 8/16/2018 2:04:46 AM
28. Kill the Farm Boy kainmonster 3 out of 5 8/16/2018 1:15:23 AM
29. The Lost Art of World Domination kszielin 3 out of 5 8/16/2018 1:01:44 AM
30. Butterface yf1000 3 out of 5 8/16/2018 12:59:55 AM
31. The Second Life of Nick Mason shanep 4 out of 5 8/16/2018 12:57:34 AM
32. Empire of Ruins sensitivemuse 4 out of 5 8/15/2018 11:48:52 PM
33. True Fiction Jhaltenburger 4 out of 5 8/15/2018 11:47:52 PM
34. Alpine for You Jhaltenburger 4 out of 5 8/15/2018 11:47:30 PM
35. Death Over Easy KrisAndersonTAR 3 out of 5 8/15/2018 10:37:13 PM
36. Black Fall stitchkat 3 out of 5 8/15/2018 10:14:49 PM
37. Phoenix Burning stitchkat 4 out of 5 8/15/2018 9:49:53 PM
38. The Chocolate War stitchkat 4 out of 5 8/15/2018 9:29:13 PM
39. A Taste for Vengeance stitchkat 4 out of 5 8/15/2018 9:25:53 PM
40. Turning the Tide stitchkat 4 out of 5 8/15/2018 9:24:22 PM
41. Killer Takeout stitchkat 4 out of 5 8/15/2018 9:08:40 PM
42. Only the Lucky stitchkat 4 out of 5 8/15/2018 9:06:19 PM
43. Down a Dark Road stitchkat 4 out of 5 8/15/2018 9:04:54 PM
44. The Wild Inside stitchkat 4 out of 5 8/15/2018 8:59:33 PM
45. Every Day Above Ground billham68 4 out of 5 8/15/2018 8:20:31 PM
46. Hard Cold Winter billham68 4 out of 5 8/15/2018 8:20:19 PM
47. Past Crimes: A Van Shaw Novel billham68 4 out of 5 8/15/2018 8:20:06 PM
48. How the Witch Stole Christmas gaboh 4 out of 5 8/15/2018 8:12:57 PM
49. The Old Witcheroo gaboh 4 out of 5 8/15/2018 8:12:44 PM
50. Dewitched gaboh 4 out of 5 8/15/2018 8:12:31 PM
51. An Extraordinary Union priceca 4 out of 5 8/15/2018 7:57:03 PM
52. Cover Your Eyes doylej 5 out of 5 8/15/2018 7:46:31 PM
53. Scepter of the Ancients kszielin 4 out of 5 8/15/2018 7:41:54 PM
54. The Laws of Murder kmcripn 4 out of 5 8/15/2018 7:19:12 PM
55. Whispered Lies westcairn 5 out of 5 8/15/2018 5:50:07 PM
56. Turn Coat sw1967 4 out of 5 8/15/2018 4:56:05 PM
57. In the Electric Mist with Confederate Dead smvs006 4 out of 5 8/15/2018 4:21:21 PM
58. Sarah's Quilt: A Novel of Sarah Agnes Prine and the Arizona Territories, 1906 dawnallinder 5 out of 5 8/15/2018 4:19:03 PM
59. Without Due Process azangie 4 out of 5 8/15/2018 4:14:37 PM
60. Mastered Gosia 3 out of 5 8/15/2018 2:24:37 PM
61. Wedding Cake Crumble MomtoMandJ 5 out of 5 8/15/2018 2:17:59 PM
62. New Year in Manhattan Nana 3 out of 5 8/15/2018 2:15:42 PM
63. Autumn in London Nana 3 out of 5 8/15/2018 2:15:35 PM
64. A Week in New York Nana 3 out of 5 8/15/2018 2:15:23 PM
65. A Call to Arms CdnBookLover 4 out of 5 8/15/2018 1:38:08 PM
66. The Cruellest Month Donna S 5 out of 5 8/15/2018 1:28:12 PM
67. The Darkest Warrior avillaruiz 5 out of 5 8/15/2018 12:44:59 PM
68. The Pharaoh Key philipereed 4 out of 5 8/15/2018 12:42:10 PM
69. Indelible Janon 5 out of 5 8/15/2018 12:36:50 PM
70. Lord Dashwood Missed Out EllenH 4 out of 5 8/15/2018 12:26:32 PM
71. Us Against You ctmurphy 5 out of 5 8/15/2018 10:57:19 AM
72. Beartown ctmurphy 5 out of 5 8/15/2018 10:56:27 AM
73. Blood of the Earth dpace17 5 out of 5 8/15/2018 10:48:01 AM
74. Dante's Dilemma mommykim 3 out of 5 8/15/2018 7:59:59 AM
75. Jackdaw RichardDerus 5 out of 5 8/15/2018 4:52:50 AM
76. Sweet Tea and Spirits MissTristy 3 out of 5 8/15/2018 4:41:52 AM
77. A Scot in the Dark Lina_mp 3 out of 5 8/15/2018 3:15:51 AM
78. It Had to Be You JanetL621 3 out of 5 8/15/2018 2:58:17 AM
79. A Poison Manicure and Peach Liqueur jeaniejackson 4 out of 5 8/15/2018 2:42:51 AM
80. Fatal Thrill jeaniejackson 4 out of 5 8/15/2018 2:42:31 AM
81. The Trophy Wife Exchange jeaniejackson 4 out of 5 8/15/2018 2:42:07 AM
82. Deadly Holiday jeaniejackson 4 out of 5 8/15/2018 2:41:50 AM
83. Devoted in Death hellokittiexoxo 5 out of 5 8/15/2018 2:35:43 AM
84. The Hope Jar KrisAndersonTAR 4 out of 5 8/14/2018 11:53:44 PM
85. Bought by the Seal rvingmillers 5 out of 5 8/14/2018 11:46:03 PM
86. Kidnapped by the Seal rvingmillers 5 out of 5 8/14/2018 11:45:29 PM
87. Targeted by the Seal rvingmillers 5 out of 5 8/14/2018 11:44:59 PM
88. Justice for the Seal rvingmillers 5 out of 5 8/14/2018 11:44:28 PM
89. Married to the Seal rvingmillers 5 out of 5 8/14/2018 11:44:03 PM
90. Harbored by the Seal rvingmillers 5 out of 5 8/14/2018 11:42:07 PM
91. The Curious Affair of the Third Dog azangie 3 out of 5 8/14/2018 11:03:10 PM
92. A Christmas Hex RichardDerus 4 out of 5 8/14/2018 10:42:32 PM
93. Reunited With the Sheriff Clodaugh 4 out of 5 8/14/2018 9:22:43 PM
94. Ask For It EllenH 4 out of 5 8/14/2018 8:37:43 PM
95. Enough westcairn 5 out of 5 8/14/2018 8:33:17 PM
96. Winter Street Marbles 5 out of 5 8/14/2018 7:57:38 PM
97. Tastes Like Murder Jhaltenburger 4 out of 5 8/14/2018 7:19:40 PM
98. Venom in the Veins susan60625 5 out of 5 8/14/2018 7:16:50 PM
99. The Quiet Side of Passion rretzler 4 out of 5 8/14/2018 5:43:21 PM
100. A Siege of Bitterns BillyBob1 4 out of 5 8/14/2018 5:01:20 PM